| time (UTC) | temp F | wind direction | speed MPH | gust MPH | rain 1hr in | rain 24hr in | rain mn in | humidity % | barometer mb |
| 20260504043003 | 42 | 224 | 6.0 | 7.0 | 0.00 | 0.08 | 0.00 | 64 | 1011.4 |
| 20260504042024 | 42 | 235 | 5.0 | 7.0 | 0.00 | 0.08 | 0.00 | 64 | 1011.2 |
| 20260504041003 | 42 | 236 | 5.0 | 7.0 | 0.00 | 0.08 | 0.00 | 63 | 1011.3 |
| 20260504040004 | 43 | 237 | 4.0 | 6.0 | 0.00 | 0.09 | 0.00 | 62 | 1011.0 |
| 20260504035003 | 43 | 203 | 5.0 | 6.0 | 0.00 | 0.09 | 0.09 | 61 | 1011.1 |
| 20260504034003 | 44 | 209 | 5.0 | 6.0 | 0.00 | 0.10 | 0.09 | 60 | 1011.1 |
| 20260504033003 | 44 | 221 | 4.0 | 6.0 | 0.00 | 0.11 | 0.09 | 60 | 1011.0 |
| 20260504032003 | 44 | 209 | 4.0 | 6.0 | 0.00 | 0.12 | 0.09 | 60 | 1010.8 |
| 20260504031003 | 44 | 210 | 4.0 | 6.0 | 0.00 | 0.13 | 0.09 | 59 | 1010.7 |
| 20260504030003 | 44 | 207 | 4.0 | 6.0 | 0.00 | 0.13 | 0.09 | 59 | 1010.9 |
| 20260504025003 | 44 | 188 | 4.0 | 6.0 | 0.00 | 0.14 | 0.09 | 58 | 1010.9 |
| 20260504024024 | 45 | 198 | 4.0 | 6.0 | 0.00 | 0.14 | 0.09 | 58 | 1010.8 |
| 20260504023003 | 45 | 202 | 3.0 | 5.0 | 0.00 | 0.15 | 0.09 | 57 | 1010.8 |
| 20260504022003 | 45 | 192 | 3.0 | 5.0 | 0.00 | 0.15 | 0.09 | 56 | 1010.9 |
| 20260504021003 | 46 | 214 | 3.0 | 5.0 | 0.00 | 0.16 | 0.09 | 57 | 1010.7 |
| 20260504020003 | 46 | 186 | 4.0 | 5.0 | 0.00 | 0.17 | 0.09 | 57 | 1010.7 |
| 20260504015004 | 47 | 196 | 3.0 | 5.0 | 0.00 | 0.18 | 0.09 | 55 | 1010.6 |
| 20260504014003 | 47 | 200 | 2.0 | 6.0 | 0.00 | 0.20 | 0.09 | 55 | 1010.5 |
| 20260504013024 | 47 | 180 | 3.0 | 6.0 | 0.00 | 0.22 | 0.09 | 53 | 1010.5 |
| 20260504012003 | 48 | 206 | 4.0 | 6.0 | 0.00 | 0.23 | 0.09 | 52 | 1010.4 |
| 20260504011003 | 48 | 193 | 3.0 | 7.0 | 0.00 | 0.25 | 0.09 | 51 | 1010.2 |
| 20260504010003 | 48 | 226 | 3.0 | 7.0 | 0.00 | 0.25 | 0.09 | 50 | 1010.1 |
| 20260504005003 | 49 | 238 | 3.0 | 6.0 | 0.00 | 0.26 | 0.09 | 50 | 1010.1 |
| 20260504004024 | 49 | 2 | 2.0 | 8.0 | 0.00 | 0.27 | 0.09 | 49 | 1009.9 |
| 20260504003003 | 50 | 220 | 4.0 | 8.0 | 0.00 | 0.28 | 0.09 | 47 | 1009.8 |
| 20260504002003 | 50 | 291 | 4.0 | 10.0 | 0.00 | 0.29 | 0.09 | 46 | 1009.4 |
| 20260504001003 | 50 | 284 | 4.0 | 13.0 | 0.00 | 0.30 | 0.09 | 45 | 1009.6 |
| 20260504000003 | 51 | 307 | 6.0 | 16.0 | 0.00 | 0.30 | 0.09 | 44 | 1009.4 |
| 20260503235003 | 51 | 306 | 5.0 | 21.0 | 0.00 | 0.30 | 0.09 | 43 | 1009.0 |
| 20260503234024 | 52 | 317 | 11.0 | 28.0 | 0.00 | 0.30 | 0.09 | 41 | 1009.0 |
| 20260503233025 | 52 | 322 | 11.0 | 28.0 | 0.00 | 0.30 | 0.09 | 40 | 1008.8 |
| 20260503232003 | 52 | 309 | 12.0 | 25.0 | 0.00 | 0.31 | 0.09 | 42 | 1008.3 |
| 20260503231003 | 52 | 310 | 10.0 | 22.0 | 0.00 | 0.32 | 0.09 | 42 | 1008.4 |
| 20260503230024 | 53 | 308 | 11.0 | 22.0 | 0.00 | 0.33 | 0.09 | 41 | 1008.0 |
| 20260503225003 | 53 | 294 | 14.0 | 29.0 | 0.00 | 0.33 | 0.09 | 43 | 1008.0 |
| 20260503224003 | 53 | 300 | 13.0 | 29.0 | 0.00 | 0.33 | 0.09 | 42 | 1008.0 |
| 20260503223004 | 53 | 338 | 11.0 | 21.0 | 0.00 | 0.33 | 0.09 | 42 | 1007.7 |
| 20260503222003 | 53 | 301 | 8.0 | 20.0 | 0.00 | 0.33 | 0.09 | 44 | 1007.5 |
| 20260503221003 | 53 | 334 | 11.0 | 24.0 | 0.00 | 0.33 | 0.09 | 41 | 1007.4 |
| 20260503220003 | 54 | 317 | 10.0 | 26.0 | 0.00 | 0.33 | 0.09 | 41 | 1007.0 |
| 20260503215004 | 54 | 328 | 16.0 | 26.0 | 0.00 | 0.33 | 0.09 | 41 | 1007.1 |
| 20260503214003 | 54 | 284 | 10.0 | 26.0 | 0.00 | 0.33 | 0.09 | 44 | 1006.9 |
| 20260503213003 | 54 | 309 | 16.0 | 26.0 | 0.00 | 0.33 | 0.09 | 41 | 1006.8 |
| 20260503212003 | 54 | 288 | 14.0 | 26.0 | 0.00 | 0.33 | 0.09 | 42 | 1006.5 |
| 20260503211024 | 55 | 318 | 4.0 | 22.0 | 0.00 | 0.33 | 0.09 | 42 | 1006.4 |
| 20260503210003 | 54 | 315 | 9.0 | 27.0 | 0.00 | 0.33 | 0.09 | 43 | 1006.4 |
| 20260503205003 | 54 | 321 | 13.0 | 27.0 | 0.00 | 0.33 | 0.09 | 44 | 1006.2 |
| 20260503204003 | 54 | 304 | 9.0 | 27.0 | 0.00 | 0.33 | 0.09 | 46 | 1006.3 |
| 20260503203024 | 55 | 327 | 16.0 | 33.0 | 0.00 | 0.33 | 0.09 | 44 | 1006.2 |
| 20260503202003 | 54 | 337 | 10.0 | 33.0 | 0.00 | 0.33 | 0.09 | 46 | 1005.9 |
| 20260503201004 | 53 | 296 | 7.0 | 33.0 | 0.00 | 0.33 | 0.09 | 49 | 1005.9 |
| 20260503200004 | 54 | 298 | 15.0 | 24.0 | 0.00 | 0.33 | 0.09 | 48 | 1005.9 |
| 20260503195003 | 54 | 274 | 11.0 | 29.0 | 0.00 | 0.33 | 0.09 | 48 | 1006.0 |
| 20260503194003 | 55 | 322 | 13.0 | 29.0 | 0.00 | 0.33 | 0.09 | 46 | 1005.9 |
| 20260503193003 | 54 | 332 | 12.0 | 28.0 | 0.00 | 0.33 | 0.09 | 50 | 1005.9 |
| 20260503192003 | 53 | 335 | 14.0 | 28.0 | 0.00 | 0.33 | 0.09 | 48 | 1005.9 |
| 20260503191003 | 53 | 321 | 9.0 | 31.0 | 0.00 | 0.33 | 0.09 | 51 | 1006.0 |
| 20260503190003 | 53 | 355 | 14.0 | 31.0 | 0.00 | 0.33 | 0.09 | 49 | 1005.9 |
| 20260503185003 | 54 | 22 | 13.0 | 24.0 | 0.00 | 0.33 | 0.09 | 51 | 1005.9 |
| 20260503184024 | 53 | 5 | 15.0 | 24.0 | 0.00 | 0.33 | 0.09 | 51 | 1006.2 |
| 20260503183003 | 53 | 357 | 18.0 | 25.0 | 0.00 | 0.33 | 0.09 | 52 | 1006.2 |
| 20260503182005 | 52 | 325 | 14.0 | 33.0 | 0.00 | 0.33 | 0.09 | 52 | 1006.1 |
| 20260503181003 | 52 | 357 | 12.0 | 40.0 | 0.00 | 0.33 | 0.09 | 53 | 1006.1 |
| 20260503180024 | 51 | 4 | 26.0 | 40.0 | 0.00 | 0.33 | 0.09 | 54 | 1006.2 |
| 20260503175003 | 51 | 340 | 24.0 | 39.0 | 0.00 | 0.33 | 0.09 | 57 | 1006.1 |
| 20260503174003 | 51 | 331 | 22.0 | 39.0 | 0.00 | 0.33 | 0.09 | 58 | 1006.2 |
| 20260503173003 | 52 | 354 | 19.0 | 33.0 | 0.00 | 0.33 | 0.09 | 57 | 1006.1 |
| 20260503172003 | 52 | 348 | 26.0 | 34.0 | 0.00 | 0.33 | 0.09 | 59 | 1005.9 |
| 20260503171003 | 52 | 323 | 20.0 | 34.0 | 0.00 | 0.33 | 0.09 | 63 | 1005.9 |
| 20260503151003 | 50 | 320 | 17.0 | 27.0 | 0.00 | 0.33 | 0.09 | 70 | 1005.7 |
| 20260503131003 | 52 | 326 | 15.0 | 24.0 | 0.00 | 0.33 | 0.09 | 66 | 1005.3 |
| 20260503081003 | 46 | 6 | 4.0 | 13.0 | 0.01 | 0.32 | 0.07 | 89 | 1007.2 |
| 20260503072024 | 47 | 356 | 8.0 | 15.0 | 0.02 | 0.31 | 0.07 | 89 | 1007.8 |
| 20260503071003 | 47 | 356 | 9.0 | 14.0 | 0.02 | 0.31 | 0.06 | 90 | 1007.8 |
| 20260503055003 | 49 | 306 | 3.0 | 6.0 | 0.02 | 0.28 | 0.04 | 94 | 1008.7 |
| 20260503054003 | 49 | 351 | 3.0 | 6.0 | 0.02 | 0.28 | 0.04 | 94 | 1008.6 |
| 20260503053003 | 50 | 36 | 1.0 | 4.0 | 0.02 | 0.27 | 0.03 | 94 | 1008.8 |
| 20260503052003 | 50 | 292 | 3.0 | 3.0 | 0.01 | 0.26 | 0.02 | 93 | 1009.0 |
| 20260503051003 | 50 | 288 | 1.0 | 4.0 | 0.02 | 0.26 | 0.02 | 93 | 1009.3 |
| 20260503050003 | 50 | 198 | 3.0 | 6.0 | 0.02 | 0.26 | 0.02 | 94 | 1009.3 |
| 20260503045024 | 50 | 264 | 2.0 | 6.0 | 0.02 | 0.26 | 0.02 | 94 | 1009.3 |
| 20260503044003 | 49 | 262 | 4.0 | 6.0 | 0.02 | 0.26 | 0.01 | 94 | 1009.5 |